VOZ1498 YBHM-YBBN

Flight info

Callsign VOZ1498
Flight time 1h 15m
Altitude 35000
Route OVRON B462 MK V153 MUNAR Y61 RUROX Y177 BN
Aircraft B738/M-S/L

Departure

Time 2026-04-20 06:02
Airport Hamilton Island Airport (YBHM)

Arrival

Time 2026-04-20 07:18
Airport Brisbane International Airport (YBBN)
Time Latitude Longitude Altitude Speed Heading
2026-04-20 05:41 -20.35331 148.95051 19 ft 0 kts 27°
2026-04-20 05:57 -20.35329 148.95051 46 ft 1 kts 14°
2026-04-20 05:57 -20.35317 148.95039 21 ft 3 kts 288°
2026-04-20 05:57 -20.35322 148.95008 19 ft 7 kts 272°
2026-04-20 05:58 -20.35291 148.94970 19 ft 8 kts 323°
2026-04-20 05:58 -20.35256 148.94941 19 ft 6 kts 317°
2026-04-20 05:58 -20.35251 148.94910 19 ft 4 kts 269°
2026-04-20 05:58 -20.35236 148.94879 19 ft 6 kts 307°
2026-04-20 05:59 -20.35242 148.94841 19 ft 6 kts 233°
2026-04-20 05:59 -20.35268 148.94801 21 ft 7 kts 250°
2026-04-20 05:59 -20.35242 148.94759 19 ft 8 kts 323°
2026-04-20 05:59 -20.35188 148.94716 18 ft 11 kts 323°
2026-04-20 06:00 -20.35122 148.94693 18 ft 9 kts
2026-04-20 06:00 -20.35082 148.94674 19 ft 6 kts 284°
2026-04-20 06:00 -20.35107 148.94653 19 ft 4 kts 169°
2026-04-20 06:00 -20.35128 148.94668 18 ft 3 kts 143°
2026-04-20 06:01 -20.35129 148.94669 18 ft 0 kts 143°
2026-04-20 06:01 -20.35141 148.94679 18 ft 19 kts 143°
2026-04-20 06:01 -20.35480 148.94951 21 ft 100 kts 143°
2026-04-20 06:02 -20.36221 148.95541 111 ft 157 kts 143°
2026-04-20 06:02 -20.37099 148.96207 951 ft 157 kts 143°
2026-04-20 06:02 -20.37999 148.96874 1884 ft 159 kts 143°
2026-04-20 06:02 -20.38970 148.97590 2470 ft 183 kts 143°
2026-04-20 06:03 -20.40092 148.98416 2767 ft 211 kts 144°
2026-04-20 06:03 -20.41527 148.99010 3177 ft 230 kts 163°
2026-04-20 06:03 -20.43089 148.99383 3889 ft 230 kts 164°
2026-04-20 06:03 -20.44670 148.99761 4442 ft 237 kts 163°
2026-04-20 06:04 -20.46298 149.00159 4986 ft 248 kts 163°
2026-04-20 06:04 -20.48019 149.00587 5568 ft 260 kts 164°
2026-04-20 06:04 -20.49783 149.01030 6547 ft 258 kts 165°
2026-04-20 06:04 -20.51538 149.01474 7412 ft 262 kts 166°
2026-04-20 06:05 -20.53307 149.01927 8217 ft 267 kts 166°
2026-04-20 06:05 -20.55125 149.02394 9066 ft 271 kts 167°
2026-04-20 06:05 -20.56977 149.02873 9889 ft 276 kts 167°
2026-04-20 06:05 -20.58871 149.03364 10497 ft 288 kts 168°
2026-04-20 06:06 -20.60908 149.03891 10705 ft 314 kts 168°
2026-04-20 06:06 -20.63108 149.04461 10948 ft 335 kts 168°
2026-04-20 06:06 -20.65414 149.05062 11474 ft 346 kts 168°
2026-04-20 06:06 -20.67775 149.05680 12127 ft 352 kts 168°
2026-04-20 06:07 -20.70163 149.06307 12864 ft 355 kts 168°
2026-04-20 06:07 -20.72578 149.06940 13553 ft 360 kts 169°
2026-04-20 06:07 -20.75033 149.07584 14193 ft 365 kts 169°
2026-04-20 06:07 -20.77506 149.08232 14829 ft 368 kts 170°
2026-04-20 06:08 -20.80005 149.08888 15476 ft 371 kts 170°
2026-04-20 06:08 -20.82527 149.09549 16087 ft 375 kts 171°
2026-04-20 06:08 -20.85055 149.10212 16662 ft 380 kts 171°
2026-04-20 06:08 -20.87637 149.10890 17234 ft 384 kts 171°
2026-04-20 06:09 -20.90250 149.11575 17808 ft 388 kts 172°
2026-04-20 06:09 -20.92890 149.12268 18336 ft 393 kts 172°
2026-04-20 06:09 -20.95562 149.12970 18783 ft 398 kts 172°
2026-04-20 06:09 -20.98270 149.13682 19207 ft 403 kts 172°
2026-04-20 06:10 -21.01012 149.14403 19630 ft 408 kts 172°
2026-04-20 06:10 -21.03787 149.15133 20066 ft 413 kts 173°
2026-04-20 06:10 -21.06558 149.15863 20505 ft 417 kts 173°
2026-04-20 06:10 -21.09390 149.16610 20943 ft 421 kts 173°
2026-04-20 06:11 -21.12257 149.17366 21374 ft 426 kts 173°
2026-04-20 06:11 -21.15151 149.18129 21805 ft 430 kts 173°
2026-04-20 06:11 -21.18067 149.18903 22229 ft 435 kts 173°
2026-04-20 06:11 -21.21011 149.19747 22658 ft 440 kts 172°
2026-04-20 06:12 -21.23966 149.20637 23072 ft 444 kts 172°
2026-04-20 06:12 -21.26949 149.21548 23498 ft 447 kts 172°
2026-04-20 06:12 -21.29953 149.22463 23880 ft 450 kts 172°
2026-04-20 06:12 -21.32981 149.23379 24230 ft 453 kts 172°
2026-04-20 06:13 -21.36032 149.24298 24594 ft 456 kts 172°
2026-04-20 06:13 -21.39092 149.25216 24944 ft 458 kts 172°
2026-04-20 06:13 -21.42173 149.26140 25293 ft 461 kts 172°
2026-04-20 06:13 -21.45274 149.27069 25630 ft 464 kts 172°
2026-04-20 06:14 -21.48395 149.28005 25952 ft 467 kts 172°
2026-04-20 06:14 -21.51517 149.29055 26261 ft 474 kts 168°
2026-04-20 06:14 -21.54627 149.30293 26573 ft 479 kts 167°
2026-04-20 06:14 -21.57740 149.31613 26866 ft 483 kts 166°
2026-04-20 06:15 -21.60821 149.32949 27171 ft 486 kts 166°
2026-04-20 06:15 -21.63967 149.34314 27449 ft 488 kts 166°
2026-04-20 06:15 -21.67134 149.35678 27730 ft 491 kts 166°
2026-04-20 06:15 -21.70318 149.37038 28027 ft 493 kts 167°
2026-04-20 06:16 -21.73522 149.38396 28310 ft 495 kts 167°
2026-04-20 06:16 -21.76740 149.39753 28575 ft 498 kts 167°
2026-04-20 06:16 -21.79969 149.41111 28824 ft 500 kts 167°
2026-04-20 06:16 -21.83220 149.42478 29082 ft 503 kts 167°
2026-04-20 06:17 -21.86487 149.43852 29333 ft 505 kts 167°
2026-04-20 06:17 -21.89773 149.45236 29576 ft 508 kts 167°
2026-04-20 06:17 -21.93032 149.46610 29809 ft 510 kts 167°
2026-04-20 06:17 -21.96339 149.48005 30096 ft 511 kts 167°
2026-04-20 06:18 -21.99645 149.49403 30443 ft 509 kts 167°
2026-04-20 06:18 -22.02936 149.50797 30798 ft 508 kts 167°
2026-04-20 06:18 -22.06226 149.52191 31120 ft 507 kts 168°
2026-04-20 06:18 -22.09506 149.53578 31402 ft 507 kts 168°
2026-04-20 06:19 -22.12796 149.54969 31686 ft 507 kts 168°
2026-04-20 06:19 -22.16079 149.56358 32002 ft 506 kts 168°
2026-04-20 06:19 -22.19355 149.57746 32318 ft 506 kts 168°
2026-04-20 06:19 -22.22627 149.59133 32630 ft 505 kts 168°
2026-04-20 06:20 -22.25906 149.60522 32913 ft 506 kts 168°
2026-04-20 06:20 -22.29177 149.61909 33224 ft 505 kts 169°
2026-04-20 06:20 -22.32442 149.63295 33546 ft 504 kts 169°
2026-04-20 06:20 -22.35705 149.64680 33847 ft 504 kts 169°
2026-04-20 06:21 -22.38973 149.66068 34137 ft 503 kts 169°
2026-04-20 06:21 -22.42224 149.67451 34442 ft 501 kts 169°
2026-04-20 06:21 -22.45460 149.68829 34786 ft 499 kts 169°
2026-04-20 06:21 -22.48681 149.70201 35068 ft 497 kts 169°
2026-04-20 06:22 -22.55165 149.72954 35080 ft 502 kts 169°
2026-04-20 06:22 -22.61592 149.75695 35073 ft 496 kts 169°
2026-04-20 06:23 -22.67993 149.78431 35079 ft 493 kts 169°
2026-04-20 06:23 -22.74373 149.81153 35084 ft 492 kts 169°
2026-04-20 06:24 -22.80744 149.83873 35082 ft 492 kts 169°
2026-04-20 06:24 -22.87102 149.86593 35084 ft 491 kts 169°
2026-04-20 06:25 -22.93464 149.89316 35085 ft 492 kts 169°
2026-04-20 06:25 -22.99799 149.92032 35078 ft 492 kts 169°
2026-04-20 06:26 -23.06156 149.94760 35091 ft 491 kts 169°
2026-04-20 06:26 -23.12516 149.97493 35086 ft 491 kts 169°
2026-04-20 06:27 -23.18879 150.00229 35086 ft 491 kts 169°
2026-04-20 06:27 -23.25243 150.02969 35084 ft 492 kts 169°
2026-04-20 06:28 -23.31598 150.05708 35080 ft 491 kts 169°
2026-04-20 06:28 -23.36879 150.07985 35083 ft 491 kts 169°
2026-04-20 06:29 -23.43242 150.10733 35085 ft 491 kts 169°
2026-04-20 06:29 -23.49596 150.13478 35083 ft 491 kts 168°
2026-04-20 06:30 -23.55951 150.16228 35088 ft 491 kts 168°
2026-04-20 06:30 -23.62253 150.18958 35088 ft 490 kts 168°
2026-04-20 06:31 -23.68584 150.21703 35075 ft 489 kts 168°
2026-04-20 06:31 -23.74905 150.24448 35076 ft 487 kts 168°
2026-04-20 06:32 -23.81196 150.27181 35082 ft 486 kts 168°
2026-04-20 06:32 -23.87480 150.29913 35082 ft 485 kts 168°
2026-04-20 06:33 -23.93752 150.32642 35085 ft 485 kts 168°
2026-04-20 06:33 -24.00019 150.35373 35082 ft 485 kts 168°
2026-04-20 06:34 -24.06297 150.38112 35082 ft 485 kts 168°
2026-04-20 06:35 -24.15708 150.42224 35079 ft 486 kts 168°
2026-04-20 06:35 -24.21998 150.44975 35087 ft 486 kts 168°
2026-04-20 06:36 -24.28244 150.47711 35084 ft 487 kts 168°
2026-04-20 06:36 -24.34543 150.50472 35090 ft 488 kts 168°
2026-04-20 06:37 -24.40846 150.53240 35090 ft 487 kts 168°
2026-04-20 06:37 -24.47126 150.55999 35086 ft 486 kts 167°
2026-04-20 06:38 -24.53180 150.59535 35095 ft 499 kts 155°
2026-04-20 06:38 -24.58956 150.63819 35099 ft 500 kts 154°
2026-04-20 06:39 -24.64667 150.68099 35102 ft 500 kts 154°
2026-04-20 06:39 -24.70438 150.72361 35098 ft 499 kts 155°
2026-04-20 06:40 -24.76217 150.76591 35102 ft 498 kts 155°
2026-04-20 06:40 -24.81986 150.80812 35100 ft 498 kts 155°
2026-04-20 06:41 -24.87746 150.85035 35102 ft 497 kts 154°
2026-04-20 06:41 -24.93498 150.89259 35106 ft 497 kts 154°
2026-04-20 06:42 -24.99251 150.93488 35103 ft 497 kts 154°
2026-04-20 06:42 -25.05003 150.97722 35100 ft 497 kts 154°
2026-04-20 06:43 -25.10748 151.01956 35101 ft 496 kts 154°
2026-04-20 06:43 -25.16453 151.06166 35107 ft 496 kts 154°
2026-04-20 06:44 -25.22184 151.10398 35102 ft 495 kts 154°
2026-04-20 06:44 -25.27905 151.14630 35098 ft 494 kts 154°
2026-04-20 06:45 -25.33620 151.18861 35106 ft 494 kts 154°
2026-04-20 06:45 -25.39328 151.23092 35102 ft 493 kts 154°
2026-04-20 06:46 -25.45026 151.27320 35107 ft 493 kts 154°
2026-04-20 06:46 -25.50710 151.31544 35104 ft 492 kts 154°
2026-04-20 06:47 -25.56383 151.35763 35103 ft 491 kts 154°
2026-04-20 06:47 -25.62051 151.39984 35100 ft 490 kts 154°
2026-04-20 06:48 -25.67704 151.44199 35094 ft 489 kts 154°
2026-04-20 06:48 -25.73346 151.48412 35101 ft 489 kts 153°
2026-04-20 06:49 -25.78672 151.53230 35111 ft 497 kts 145°
2026-04-20 06:49 -25.83800 151.58399 35110 ft 498 kts 144°
2026-04-20 06:50 -25.88902 151.63547 34651 ft 503 kts 144°
2026-04-20 06:50 -25.91500 151.66144 34045 ft 502 kts 144°
2026-04-20 06:50 -25.94102 151.68737 33300 ft 502 kts 144°
2026-04-20 06:50 -25.96703 151.71325 32572 ft 501 kts 143°
2026-04-20 06:51 -25.99294 151.73902 31848 ft 499 kts 143°
2026-04-20 06:51 -26.01877 151.76473 31239 ft 495 kts 143°
2026-04-20 06:51 -26.04423 151.79010 30739 ft 489 kts 143°
2026-04-20 06:51 -26.06943 151.81524 30227 ft 484 kts 143°
2026-04-20 06:52 -26.09429 151.84004 29626 ft 478 kts 143°
2026-04-20 06:52 -26.11885 151.86456 29115 ft 470 kts 143°
2026-04-20 06:52 -26.14305 151.88873 28586 ft 464 kts 142°
2026-04-20 06:52 -26.16687 151.91254 28083 ft 457 kts 142°
2026-04-20 06:53 -26.19043 151.93609 27570 ft 451 kts 142°
2026-04-20 06:53 -26.21336 151.95902 27070 ft 446 kts 142°
2026-04-20 06:53 -26.23631 151.98198 26575 ft 441 kts 142°
2026-04-20 06:53 -26.25896 152.00465 26079 ft 436 kts 142°
2026-04-20 06:54 -26.28139 152.02711 25587 ft 431 kts 142°
2026-04-20 06:54 -26.30364 152.04942 25098 ft 427 kts 142°
2026-04-20 06:54 -26.32558 152.07141 24630 ft 422 kts 142°
2026-04-20 06:54 -26.34733 152.09323 24156 ft 418 kts 142°
2026-04-20 06:55 -26.36887 152.11486 23687 ft 415 kts 142°
2026-04-20 06:55 -26.39021 152.13630 23144 ft 411 kts 141°
2026-04-20 06:55 -26.41131 152.15750 22659 ft 406 kts 141°
2026-04-20 06:55 -26.43215 152.17846 22198 ft 401 kts 141°
2026-04-20 06:56 -26.45272 152.19916 21730 ft 396 kts 141°
2026-04-20 06:56 -26.47305 152.21963 21276 ft 392 kts 142°
2026-04-20 06:56 -26.49320 152.23992 20806 ft 388 kts 141°
2026-04-20 06:56 -26.51312 152.25999 20366 ft 384 kts 142°
2026-04-20 06:57 -26.53290 152.27992 19913 ft 381 kts 141°
2026-04-20 06:57 -26.55221 152.29940 19482 ft 377 kts 141°
2026-04-20 06:57 -26.57160 152.31897 19046 ft 374 kts 141°
2026-04-20 06:57 -26.59087 152.33842 18609 ft 371 kts 142°
2026-04-20 06:58 -26.60994 152.35767 18148 ft 368 kts 141°
2026-04-20 06:58 -26.62887 152.37680 17682 ft 365 kts 141°
2026-04-20 06:58 -26.64751 152.39578 17364 ft 359 kts 141°
2026-04-20 06:58 -26.66573 152.41458 17107 ft 353 kts 141°
2026-04-20 06:59 -26.68372 152.43319 16787 ft 352 kts 141°
2026-04-20 06:59 -26.70161 152.45173 16388 ft 349 kts 141°
2026-04-20 06:59 -26.71938 152.47012 15952 ft 347 kts 141°
2026-04-20 06:59 -26.73685 152.48820 15525 ft 345 kts 140°
2026-04-20 07:00 -26.75438 152.50635 15088 ft 343 kts 140°
2026-04-20 07:00 -26.77182 152.52440 14665 ft 341 kts 140°
2026-04-20 07:00 -26.78918 152.54238 14233 ft 339 kts 140°
2026-04-20 07:00 -26.80647 152.56029 13791 ft 338 kts 140°
2026-04-20 07:01 -26.82365 152.57809 13317 ft 336 kts 140°
2026-04-20 07:01 -26.84071 152.59579 12875 ft 333 kts 140°
2026-04-20 07:01 -26.85767 152.61338 12446 ft 331 kts 140°
2026-04-20 07:01 -26.87449 152.63084 12024 ft 329 kts 140°
2026-04-20 07:02 -26.89104 152.64796 11580 ft 327 kts 140°
2026-04-20 07:02 -26.90768 152.66513 11207 ft 324 kts 140°
2026-04-20 07:02 -26.92421 152.68219 10816 ft 321 kts 140°
2026-04-20 07:02 -26.94027 152.69879 10492 ft 308 kts 140°
2026-04-20 07:03 -26.95573 152.71478 10170 ft 297 kts 140°
2026-04-20 07:03 -26.97066 152.73021 9829 ft 287 kts 140°
2026-04-20 07:03 -26.98519 152.74503 9499 ft 279 kts 140°
2026-04-20 07:03 -27.00102 152.75691 9227 ft 272 kts 160°
2026-04-20 07:04 -27.01350 152.76070 9085 ft 268 kts 172°
2026-04-20 07:04 -27.03195 152.76326 8909 ft 267 kts 174°
2026-04-20 07:04 -27.05019 152.76557 8690 ft 267 kts 174°
2026-04-20 07:04 -27.06885 152.76798 8481 ft 266 kts 174°
2026-04-20 07:05 -27.08724 152.77044 8298 ft 267 kts 174°
2026-04-20 07:05 -27.10548 152.77291 8101 ft 268 kts 174°
2026-04-20 07:05 -27.12394 152.77544 7903 ft 267 kts 174°
2026-04-20 07:05 -27.14234 152.77838 7708 ft 267 kts 168°
2026-04-20 07:06 -27.16033 152.78363 7512 ft 267 kts 165°
2026-04-20 07:06 -27.17815 152.78941 7325 ft 266 kts 165°
2026-04-20 07:06 -27.19588 152.79507 7150 ft 264 kts 165°
2026-04-20 07:06 -27.21354 152.80059 6977 ft 263 kts 166°
2026-04-20 07:07 -27.23122 152.80606 6818 ft 263 kts 166°
2026-04-20 07:07 -27.24889 152.81140 6648 ft 263 kts 166°
2026-04-20 07:07 -27.26662 152.81672 6474 ft 263 kts 166°
2026-04-20 07:07 -27.28434 152.82203 6300 ft 263 kts 166°
2026-04-20 07:08 -27.30204 152.82735 6122 ft 263 kts 166°
2026-04-20 07:08 -27.31973 152.83283 5939 ft 264 kts 163°
2026-04-20 07:08 -27.33701 152.83975 5769 ft 264 kts 160°
2026-04-20 07:08 -27.35412 152.84722 5597 ft 263 kts 159°
2026-04-20 07:09 -27.37104 152.85467 5446 ft 258 kts 159°
2026-04-20 07:09 -27.38754 152.86188 5274 ft 252 kts 159°
2026-04-20 07:09 -27.40365 152.86888 5157 ft 245 kts 159°
2026-04-20 07:09 -27.41941 152.87570 5024 ft 241 kts 160°
2026-04-20 07:10 -27.43502 152.88243 4912 ft 240 kts 160°
2026-04-20 07:10 -27.45038 152.88904 4783 ft 238 kts 160°
2026-04-20 07:10 -27.46574 152.89564 4648 ft 235 kts 160°
2026-04-20 07:10 -27.48095 152.90216 4521 ft 233 kts 159°
2026-04-20 07:11 -27.49607 152.90865 4395 ft 233 kts 159°
2026-04-20 07:11 -27.51134 152.91521 4273 ft 236 kts 159°
2026-04-20 07:11 -27.52676 152.92189 4125 ft 239 kts 159°
2026-04-20 07:11 -27.54212 152.92860 3970 ft 235 kts 158°
2026-04-20 07:12 -27.55714 152.93522 3820 ft 229 kts 156°
2026-04-20 07:12 -27.56939 152.94580 3682 ft 220 kts 127°
2026-04-20 07:12 -27.57553 152.96100 3549 ft 209 kts 104°
2026-04-20 07:12 -27.57659 152.97698 3424 ft 199 kts 92°
2026-04-20 07:13 -27.57618 152.99227 3255 ft 194 kts 91°
2026-04-20 07:13 -27.57512 153.00733 3102 ft 195 kts 78°
2026-04-20 07:13 -27.56701 153.01957 3030 ft 200 kts 37°
2026-04-20 07:13 -27.55543 153.02822 3009 ft 199 kts 38°
2026-04-20 07:14 -27.54364 153.03672 2982 ft 203 kts 33°
2026-04-20 07:14 -27.53134 153.04432 2760 ft 201 kts 31°
2026-04-20 07:14 -27.51906 153.05142 2522 ft 196 kts 31°
2026-04-20 07:14 -27.50732 153.05814 2289 ft 184 kts 30°
2026-04-20 07:15 -27.49618 153.06453 2046 ft 175 kts 32°
2026-04-20 07:15 -27.48536 153.07076 1812 ft 175 kts 31°
2026-04-20 07:15 -27.47496 153.07673 1598 ft 165 kts 31°
2026-04-20 07:15 -27.46488 153.08253 1374 ft 160 kts 31°
2026-04-20 07:16 -27.45541 153.08791 1172 ft 150 kts 31°
2026-04-20 07:16 -27.44615 153.09325 999 ft 148 kts 32°
2026-04-20 07:16 -27.43716 153.09842 800 ft 146 kts 33°
2026-04-20 07:16 -27.42822 153.10360 580 ft 144 kts 31°
2026-04-20 07:17 -27.41886 153.10899 380 ft 153 kts 31°
2026-04-20 07:17 -27.40949 153.11433 214 ft 149 kts 33°
2026-04-20 07:17 -27.40046 153.11952 34 ft 143 kts 30°
2026-04-20 07:17 -27.39269 153.12402 19 ft 99 kts 26°
2026-04-20 07:18 -27.38844 153.12628 20 ft 35 kts 20°
2026-04-20 07:18 -27.38719 153.12658 19 ft 24 kts
2026-04-20 07:18 -27.38590 153.12657 19 ft 14 kts 357°
2026-04-20 07:18 -27.38492 153.12652 18 ft 15 kts 358°
2026-04-20 07:19 -27.38409 153.12645 18 ft 10 kts 342°
2026-04-20 07:19 -27.38372 153.12571 17 ft 12 kts 262°
2026-04-20 07:19 -27.38424 153.12516 17 ft 10 kts 207°
2026-04-20 07:19 -27.38480 153.12484 18 ft 9 kts 207°
2026-04-20 07:20 -27.38536 153.12453 18 ft 10 kts 206°
2026-04-20 07:20 -27.38610 153.12410 17 ft 14 kts 207°
2026-04-20 07:20 -27.38703 153.12357 17 ft 17 kts 207°
2026-04-20 07:20 -27.38777 153.12312 18 ft 11 kts 218°
2026-04-20 07:21 -27.38790 153.12238 17 ft 10 kts 289°
2026-04-20 07:21 -27.38816 153.12173 17 ft 11 kts 210°
2026-04-20 07:21 -27.38874 153.12115 19 ft 9 kts 245°
2026-04-20 07:21 -27.38860 153.12050 18 ft 8 kts 294°
2026-04-20 07:22 -27.38844 153.12009 17 ft 2 kts 293°
2026-04-20 07:22 -27.38842 153.12005 17 ft 0 kts 293°